Satellite-Ground Cal/Val Region Overpasses Predictions

Prediction of Satellite NPP Overpassing Cal/Val Region: PacNW

Region Location: (Latitude: 10.00, Longitude: 139.50) to (Latitude: 22.70, Longitude: 165.60).

Table of predicted overpasses for the next 14.0 days since TLE Epoch: 3/18/2016
Interval Starting Time Starting Location Ending Time Ending Location
1 03/18/2016 15:12:06 ( 22.69, 157.22) 03/18/2016 15:15:42 ( 10.01, 154.21)
2 03/19/2016 02:21:11 ( 10.01, 164.75) 03/19/2016 02:24:47 ( 22.69, 161.74)
3 03/19/2016 14:53:04 ( 22.67, 161.97) 03/19/2016 14:56:39 ( 10.05, 158.97)
4 03/20/2016 03:43:39 ( 10.04, 144.13) 03/20/2016 03:47:14 ( 22.66, 141.13)
5 03/20/2016 14:35:21 ( 18.02, 165.59) 03/20/2016 14:37:37 ( 10.04, 163.73)
6 03/20/2016 16:15:32 ( 22.65, 141.35) 03/20/2016 16:17:42 ( 15.02, 139.51)
7 03/21/2016 03:24:36 ( 10.06, 148.89) 03/21/2016 03:28:11 ( 22.68, 145.89)
8 03/21/2016 15:56:28 ( 22.68, 146.12) 03/21/2016 16:00:04 ( 10.01, 143.11)
9 03/22/2016 03:05:33 ( 10.02, 153.65) 03/22/2016 03:09:08 ( 22.64, 150.65)
10 03/22/2016 15:37:26 ( 22.67, 150.88) 03/22/2016 15:41:01 ( 10.05, 147.88)
11 03/23/2016 02:46:30 ( 10.04, 158.41) 03/23/2016 02:50:05 ( 22.66, 155.41)
12 03/23/2016 15:18:23 ( 22.65, 155.63) 03/23/2016 15:21:58 ( 10.03, 152.63)
13 03/24/2016 02:27:27 ( 10.00, 163.18) 03/24/2016 02:31:03 ( 22.69, 160.16)
14 03/24/2016 14:59:20 ( 22.68, 160.40) 03/24/2016 15:02:56 ( 10.01, 157.39)
15 03/25/2016 02:11:14 ( 20.01, 165.59) 03/25/2016 02:11:59 ( 22.65, 164.93)
16 03/25/2016 03:49:54 ( 10.03, 142.56) 03/25/2016 03:53:29 ( 22.66, 139.56)
17 03/25/2016 14:40:17 ( 22.66, 165.16) 03/25/2016 14:43:52 ( 10.04, 162.16)
18 03/25/2016 16:21:47 ( 22.65, 139.78) 03/25/2016 16:22:06 ( 21.54, 139.50)
19 03/26/2016 03:30:52 ( 10.06, 147.31) 03/26/2016 03:34:27 ( 22.68, 144.31)
20 03/26/2016 16:02:44 ( 22.69, 144.55) 03/26/2016 16:06:20 ( 10.01, 141.54)
21 03/27/2016 03:11:49 ( 10.02, 152.08) 03/27/2016 03:15:24 ( 22.65, 149.08)
22 03/27/2016 15:43:41 ( 22.67, 149.30) 03/27/2016 15:47:16 ( 10.05, 146.31)
23 03/28/2016 02:52:46 ( 10.04, 156.83) 03/28/2016 02:56:21 ( 22.67, 153.83)
24 03/28/2016 15:24:39 ( 22.65, 154.06) 03/28/2016 15:28:14 ( 10.03, 151.06)
25 03/29/2016 02:33:43 ( 10.01, 161.60) 03/29/2016 02:37:19 ( 22.69, 158.59)
26 03/29/2016 15:05:35 ( 22.68, 158.83) 03/29/2016 15:09:11 ( 10.01, 155.82)
27 03/30/2016 02:15:37 ( 13.38, 165.59) 03/30/2016 02:18:15 ( 22.66, 163.36)
28 03/30/2016 03:56:10 ( 10.04, 140.98) 03/30/2016 03:57:58 ( 16.39, 139.51)
29 03/30/2016 14:46:33 ( 22.66, 163.58) 03/30/2016 14:50:08 ( 10.04, 160.58)
30 03/31/2016 03:37:07 ( 10.01, 145.75) 03/31/2016 03:40:43 ( 22.69, 142.74)
31 03/31/2016 14:30:46 ( 11.13, 165.59) 03/31/2016 14:31:05 ( 10.02, 165.34)
32 03/31/2016 16:08:59 ( 22.68, 142.97) 03/31/2016 16:12:35 ( 10.01, 139.96)


NCC Satellite Cal/Val Overpasses Prediction Service
